Weather History for Panama City, FL

Change the Weather History Date:

Monday, February 25, 2013

  Actual Average Record
Temperature  
Mean Temperature 61 °F -  
Max Temperature 65 °F - 78 °F (2011)
Min Temperature 56 °F - 46 °F (2012)
Degree Days  
Heating Degree Days 4    
Cooling Degree Days 0    
Growing Degree Days 10 (Base 50)    
Moisture  
Dew Point 58 °F    
Average Humidity 89    
Maximum Humidity 93    
Minimum Humidity 84    
Precipitation  
Precipitation 2.65 in - 2.65 in (2013)
Month to date precipitation  
Year to date precipitation  
Sea Level Pressure  
Sea Level Pressure 29.79 in    
Wind  
Wind Speed 10 mph (NE)    
Max Wind Speed 24 mph    
Max Gust Speed 29 mph    
Visibility 6 miles    
Events Rain , Thunderstorm    
T = Trace of Precipitation, MM = Missing Value Source: NWS Daily Summary

Daily Weather History Graph

Daily Weather History Graph

Search for Another Location

Airport:

Trip Planner

Search our weather history database for the weather conditions in past years. The results will help you decide how hot, cold, wet, or windy it might be!

Date:

Astronomy

Feb. 25, 2013 Rise Set
Actual Time 7:13 AM EST 6:39 PM EST
Civil Twilight 6:49 AM EST 7:03 PM EST
Nautical Twilight 6:21 AM EST 7:31 PM EST
Astronomical Twilight 5:53 AM EST 7:59 PM EST
Moon 6:47 PM EST (2/25) 6:45 AM EST (2/25)
Length of Visible Light 12h 14m
Length of Day
11h 26m
Full, 100% of the Moon is Illuminated
Feb 25
Full
Feb 25
Full
Mar 4
Last Quarter
Mar 11
New
Mar 19
First Quarter

Hourly Weather History & Observations

Time (EST) Temp. Dew Point Humidity Pressure Visibility Wind Dir Wind Speed Gust Speed Precip Events Conditions
12:11 AM 62.6 °F 60.8 °F 94% 29.85 in 10.0 mi NNE 5.8 mph - 0.00 in Rain , Thunderstorm Thunderstorms and Rain
12:25 AM 62.6 °F 60.8 °F 94% 29.87 in 7.0 mi SE 5.8 mph - 0.03 in Rain , Thunderstorm Rain
12:29 AM 62.6 °F 60.8 °F 94% 29.88 in 1.5 mi East 5.8 mph - 0.27 in Rain , Thunderstorm Rain
12:42 AM 62.6 °F 60.8 °F 94% 29.88 in 3.0 mi NNE 6.9 mph - 0.38 in Rain , Thunderstorm Rain
12:53 AM 62.1 °F 60.1 °F 93% 29.90 in 5.0 mi North 8.1 mph - 0.38 in Rain Rain
1:12 AM 60.8 °F 59.0 °F 94% 29.85 in 10.0 mi NNE 9.2 mph - 0.00 in Rain Rain
1:19 AM 60.8 °F 59.0 °F 94% 29.85 in 10.0 mi NNE 10.4 mph - 0.00 in Rain Rain
1:53 AM 61.0 °F 57.9 °F 90% 29.88 in 10.0 mi NE 8.1 mph - 0.00 in Rain Rain
2:14 AM 60.8 °F 57.2 °F 88% 29.86 in 5.0 mi North 10.4 mph - 0.05 in Rain , Thunderstorm Rain
2:31 AM 60.8 °F 57.2 °F 88% 29.83 in 4.0 mi NNE 10.4 mph - 0.12 in Rain , Thunderstorm Rain
2:53 AM 59.0 °F 57.0 °F 93% 29.87 in 8.0 mi NE 9.2 mph - 0.15 in Rain , Thunderstorm Rain
3:18 AM 59.0 °F 57.2 °F 94% 29.80 in 5.0 mi ENE 8.1 mph - 0.04 in Rain , Thunderstorm Thunderstorms and Rain
3:43 AM 59.0 °F 57.2 °F 94% 29.82 in 4.0 mi NW 13.8 mph - 0.08 in Rain Rain
3:53 AM 57.9 °F 55.9 °F 93% 29.88 in 7.0 mi NW 11.5 mph - 0.08 in Rain Rain
4:00 AM 57.2 °F 55.4 °F 94% 29.81 in 2.5 mi NNW 11.5 mph 21.9 mph 0.13 in Rain , Thunderstorm Rain
4:10 AM 57.2 °F 55.4 °F 94% 29.82 in 1.5 mi North 12.7 mph 18.4 mph 0.31 in Rain , Thunderstorm Rain
4:15 AM 57.2 °F 55.4 °F 94% 29.82 in 2.0 mi NNW 16.1 mph 21.9 mph 0.35 in Rain , Thunderstorm Rain
4:23 AM 57.2 °F 55.4 °F 94% 29.85 in 3.0 mi NW 11.5 mph - 0.41 in Rain , Thunderstorm Thunderstorms and Rain
4:40 AM 57.2 °F 55.4 °F 94% 29.80 in 8.0 mi North 12.7 mph - 0.44 in Rain , Thunderstorm Thunderstorms and Rain
4:53 AM 57.0 °F 55.0 °F 93% 29.84 in 10.0 mi NNE 12.7 mph - 0.44 in Rain Rain
5:53 AM 57.9 °F 55.0 °F 90% 29.82 in 9.0 mi NE 10.4 mph - 0.01 in Rain Rain
6:11 AM 57.2 °F 55.4 °F 94% 29.79 in 10.0 mi ENE 8.1 mph - 0.01 in Rain , Thunderstorm Rain
6:34 AM 57.2 °F 55.4 °F 94% 29.81 in 2.0 mi ENE 10.4 mph - 0.19 in Rain Rain
6:45 AM 57.2 °F 55.4 °F 94% 29.81 in 3.0 mi East 13.8 mph - 0.25 in Rain Rain
6:53 AM 57.9 °F 55.9 °F 93% 29.83 in 10.0 mi ENE 11.5 mph 19.6 mph 0.25 in Rain Light Rain
7:51 AM 60.8 °F 57.2 °F 88% 29.78 in 10.0 mi ENE 12.7 mph 19.6 mph 0.00 in   Overcast
7:53 AM 60.1 °F 57.9 °F 93% 29.82 in 10.0 mi ENE 13.8 mph 19.6 mph 0.00 in   Overcast
8:53 AM 62.1 °F 59.0 °F 90% 29.79 in 9.0 mi ENE 13.8 mph 23.0 mph 0.00 in Rain Light Rain
9:18 AM 62.6 °F 59.0 °F 88% 29.84 in 3.0 mi WNW 16.1 mph - N/A Rain Heavy Rain
9:21 AM 62.6 °F 59.0 °F 88% 29.83 in 2.5 mi NW 17.3 mph - N/A Rain Heavy Rain
9:28 AM 60.8 °F 59.0 °F 94% 29.84 in 1.2 mi NNW 17.3 mph 24.2 mph N/A Rain Heavy Rain
9:35 AM 60.8 °F 57.2 °F 88% 29.83 in 1.0 mi WNW 8.1 mph 24.2 mph N/A Rain Heavy Rain
9:53 AM 60.1 °F 57.9 °F 93% 29.88 in 1.8 mi North 11.5 mph - N/A Rain Heavy Rain
9:56 AM 60.8 °F 57.2 °F 88% 29.84 in 2.0 mi North 12.7 mph - 0.01 in Rain Heavy Rain
10:07 AM 60.8 °F 57.2 °F 88% 29.83 in 3.0 mi North 16.1 mph - 0.04 in Rain Heavy Rain
10:16 AM 60.8 °F 57.2 °F 88% 29.82 in 2.0 mi North 16.1 mph - 0.08 in Rain Heavy Rain
10:28 AM 60.8 °F 57.2 °F 88% 29.82 in 3.0 mi North 15.0 mph 23.0 mph 0.09 in Rain Heavy Rain
10:53 AM 61.0 °F 57.9 °F 90% 29.86 in 3.0 mi NNE 18.4 mph 27.6 mph 0.16 in Rain Heavy Rain
11:42 AM 60.8 °F 57.2 °F 88% 29.82 in 4.0 mi NNE 16.1 mph 23.0 mph 0.12 in Rain Rain
11:53 AM 61.0 °F 57.9 °F 90% 29.86 in 5.0 mi NNE 17.3 mph 24.2 mph 0.12 in Rain Rain
12:53 PM 61.0 °F 57.9 °F 90% 29.84 in 2.5 mi NE 12.7 mph - 0.11 in Rain Heavy Rain
1:04 PM 60.8 °F 57.2 °F 88% 29.81 in 3.0 mi Variable 5.8 mph 26.5 mph 0.03 in Rain Light Rain
1:53 PM 62.1 °F 57.9 °F 86% 29.79 in 10.0 mi ENE 16.1 mph 26.5 mph 0.03 in   Mostly Cloudy
2:53 PM 63.0 °F 57.9 °F 84% 29.79 in 10.0 mi ENE 11.5 mph - N/A   Mostly Cloudy
3:53 PM 63.0 °F 59.0 °F 87% 29.76 in 10.0 mi ENE 9.2 mph - 0.00 in   Scattered Clouds
4:03 PM 62.6 °F 59.0 °F 88% 29.74 in 10.0 mi East 12.7 mph 18.4 mph N/A   Mostly Cloudy
4:53 PM 63.0 °F 59.0 °F 87% 29.75 in 10.0 mi East 10.4 mph - 0.00 in Rain Light Rain
5:53 PM 62.1 °F 59.0 °F 90% 29.76 in 6.0 mi East 9.2 mph - N/A Rain Rain
6:00 PM 62.6 °F 59.0 °F 88% 29.72 in 5.0 mi East 9.2 mph - 0.01 in Rain Rain
6:38 PM 62.6 °F 59.0 °F 88% 29.73 in 8.0 mi East 10.4 mph - 0.01 in Rain Rain
6:53 PM 62.1 °F 59.0 °F 90% 29.77 in 4.0 mi East 11.5 mph - 0.06 in Rain Heavy Rain
7:53 PM 62.1 °F 60.1 °F 93% 29.72 in 10.0 mi ENE 9.2 mph - 0.07 in   Overcast
8:53 PM 62.1 °F 60.1 °F 93% 29.73 in 10.0 mi East 9.2 mph - 0.00 in Rain Light Rain
9:00 PM 62.6 °F 60.8 °F 94% 29.66 in 8.0 mi ENE 9.2 mph - 0.01 in Rain Rain
9:29 PM 62.6 °F 60.8 °F 94% 29.68 in 10.0 mi East 10.4 mph - 0.01 in   Overcast
9:53 PM 62.6 °F 60.8 °F 94% 29.68 in 9.0 mi East 9.2 mph - N/A Rain Light Rain
10:10 PM 62.6 °F 60.8 °F 94% 29.68 in 2.5 mi East 9.2 mph - 0.15 in Rain Heavy Rain
10:13 PM 62.6 °F 60.8 °F 94% 29.69 in 2.0 mi East 9.2 mph - 0.22 in Rain , Thunderstorm Heavy Thunderstorms and Rain
10:31 PM 62.6 °F 60.8 °F 94% 29.68 in 3.0 mi East 8.1 mph - 0.39 in Rain , Thunderstorm Heavy Thunderstorms and Rain
10:36 PM 62.6 °F 60.8 °F 94% 29.69 in 2.5 mi East 9.2 mph - 0.41 in Rain , Thunderstorm Heavy Thunderstorms and Rain
10:48 PM 62.6 °F 60.8 °F 94% 29.68 in 2.5 mi East 8.1 mph - 0.53 in Rain , Thunderstorm Heavy Rain
10:53 PM 63.0 °F 61.0 °F 93% 29.71 in 1.8 mi ENE 8.1 mph - 0.61 in Rain , Thunderstorm Heavy Rain
11:00 PM 62.6 °F 60.8 °F 94% 29.67 in 3.0 mi East 9.2 mph - 0.04 in Rain , Thunderstorm Heavy Rain
11:23 PM 62.6 °F 60.8 °F 94% 29.68 in 9.0 mi East 9.2 mph - 0.06 in Rain Light Rain
11:53 PM 64.0 °F 62.1 °F 93% 29.69 in 9.0 mi East 12.7 mph - 0.06 in Rain Rain